Terminal Aerodrome Forecast
Issued by NWS Wichita, KS

Home | Current Version | Previous Version | Graphics & Text | Print | Product List | Glossary On
Versions: 1 2 3 4 5 6 7 8 9 10 11 12
000
FTUS43 KICT 260500
TAFICT
TAF
KICT 260520Z 2606/2706 18014KT P6SM SCT150
     FM261500 22017G24KT P6SM SCT150
     FM270100 18009KT P6SM BKN200=

USA.gov is the U.S. government's official web portal to all federal, state and local government web resources and services.